Triuchirapalli, India

4:58 AM IST on September 21, 2019 (GMT +0530)
Tiruchirappalli

Weather History for VOTR - July, 2019

Change the Weather History Date:

Friday, July 12, 2019

  Actual Average Record
Temperature  
Mean Temperature 92 °F -  
Max Temperature 104 °F 93 °F 104 °F (2019)
Min Temperature 80 °F 80 °F 77 °F (2010)
Cooling Degree Days 27    
Growing Degree Days 42 (Base 50)    
Moisture  
Dew Point 72 °F    
Average Humidity 58    
Maximum Humidity 79    
Minimum Humidity 25    
Precipitation  
Precipitation 0.00 in - - ()
Sea Level Pressure  
Sea Level Pressure 29.77 in    
Wind  
Wind Speed 6 mph ()    
Max Wind Speed 13 mph    
Max Gust Speed -    
Visibility 4.2 miles    
Events      
Averages and records for this station are not official NWS values.
T = Trace of Precipitation, MM = Missing Value Source: Averaged Metar Reports

Daily Weather History Graph

Daily Weather History Graph

Search for Another Location

Airport or City:

Astronomy

Jul. 12, 2019 Rise Set
Actual Time 5:59 AM IST 6:42 PM IST
Civil Twilight 5:36 AM IST 7:04 PM IST
Nautical Twilight 5:09 AM IST 7:31 PM IST
Astronomical Twilight 4:42 AM IST 7:59 PM IST
Moon 2:49 PM IST (7/12) 2:00 AM IST (7/12)
Length of Visible Light 13h 28m
Length of Day
12h 42m
Waxing Gibbous, 79% of the Moon is Illuminated
Jul 12
Waxing Gibbous
Jul 17
Full
Jul 25
Last Quarter
Aug 1
New
Aug 7
First Quarter

Hourly Weather History & Observations

Time (IST) Temp. Heat Index Dew Point Humidity Pressure Visibility Wind Dir Wind Speed Gust Speed Precip Events Conditions
12:00 AM 84.2 °F 89.6 °F 71.6 °F 66% 29.80 in 3.7 mi WNW 6.9 mph - N/A   Mostly Cloudy
12:30 AM 84.2 °F 90.9 °F 73.4 °F 70% 29.77 in 3.7 mi WNW 8.1 mph - N/A   Scattered Clouds
1:00 AM 84.2 °F 90.9 °F 73.4 °F 70% 29.77 in 3.7 mi WNW 6.9 mph - N/A   Scattered Clouds
1:30 AM 84.2 °F 90.9 °F 73.4 °F 70% 29.77 in 3.7 mi West 8.1 mph - N/A   Partly Cloudy
2:00 AM 84.2 °F 90.9 °F 73.4 °F 70% 29.77 in 3.7 mi West 5.8 mph - N/A   Partly Cloudy
2:30 AM 83 °F - 73 °F 65% 29.76 in 2 mi WNW 5.8 mph - -   Haze
2:30 AM 82.4 °F 88.2 °F 73.4 °F 74% 29.77 in 3.7 mi WNW 5.8 mph - N/A   Partly Cloudy
3:00 AM 82.4 °F 88.2 °F 73.4 °F 74% 29.77 in 3.7 mi WNW 5.8 mph - N/A   Partly Cloudy
3:30 AM 82.4 °F 88.2 °F 73.4 °F 74% 29.77 in 3.7 mi West 3.5 mph - N/A   Partly Cloudy
4:00 AM 82.4 °F 88.2 °F 73.4 °F 74% 29.77 in 3.7 mi West 4.6 mph - N/A   Partly Cloudy
4:30 AM 82.4 °F 88.2 °F 73.4 °F 74% 29.77 in 3.7 mi West 4.6 mph - N/A   Partly Cloudy
5:00 AM 82.4 °F 88.2 °F 73.4 °F 74% 29.77 in 3.7 mi West 5.8 mph - N/A   Partly Cloudy
5:30 AM 81 °F - 73 °F 70% 29.78 in 2 mi WSW 5.8 mph - -   Haze
5:30 AM 80.6 °F 85.4 °F 73.4 °F 79% 29.77 in 3.7 mi WSW 5.8 mph - N/A   Partly Cloudy
6:00 AM 80.6 °F 85.4 °F 73.4 °F 79% 29.77 in 3.7 mi WSW 3.5 mph - N/A   Mostly Cloudy
6:30 AM 80.6 °F 85.4 °F 73.4 °F 79% 29.80 in 3.7 mi SW 4.6 mph - N/A   Mostly Cloudy
7:00 AM 80.6 °F 85.4 °F 73.4 °F 79% 29.80 in 3.7 mi WSW 5.8 mph - N/A   Mostly Cloudy
7:30 AM 82.4 °F 87.2 °F 71.6 °F 70% 29.80 in 3.7 mi WSW 4.6 mph - N/A   Mostly Cloudy
8:00 AM 84.2 °F 89.6 °F 71.6 °F 66% 29.83 in 3.7 mi West 5.8 mph - N/A   Mostly Cloudy
8:30 AM 84 °F - 72 °F 61% 29.83 in 2 mi WNW 5.8 mph - -   Haze
8:30 AM 84.2 °F 90.9 °F 73.4 °F 70% 29.83 in 3.7 mi WNW 5.8 mph - N/A   Mostly Cloudy
9:00 AM 84.2 °F 89.6 °F 71.6 °F 66% 29.83 in 3.7 mi West 4.6 mph - N/A   Mostly Cloudy
9:30 AM 86.0 °F 91.8 °F 71.6 °F 62% 29.83 in 3.7 mi SW 4.6 mph - N/A   Mostly Cloudy
10:00 AM 86.0 °F 91.8 °F 71.6 °F 62% 29.83 in 3.7 mi West 5.8 mph - N/A   Scattered Clouds
10:30 AM 87.8 °F 93.8 °F 71.6 °F 58% 29.83 in 3.7 mi West 5.8 mph - N/A   Scattered Clouds
11:00 AM 89.6 °F 94.7 °F 69.8 °F 52% 29.83 in 3.7 mi WSW 5.8 mph - N/A   Scattered Clouds
11:30 AM 94 °F - 71 °F 38% 29.79 in 2 mi WSW 6.9 mph - -   Haze
11:30 AM 93.2 °F 100.5 °F 71.6 °F 49% 29.80 in 3.7 mi WSW 6.9 mph - N/A   Scattered Clouds
12:00 PM 95.0 °F 103.2 °F 71.6 °F 47% 29.80 in 3.7 mi West 5.8 mph - N/A   Scattered Clouds
12:30 PM 96.8 °F 103.1 °F 69.8 °F 41% 29.77 in 5.0 mi WSW 6.9 mph - N/A   Scattered Clouds
1:00 PM 98.6 °F 105.5 °F 69.8 °F 39% 29.74 in 6.2 mi WNW 9.2 mph - N/A   Scattered Clouds
2:00 PM 100.4 °F 106.3 °F 68.0 °F 35% 29.71 in 6.2 mi WNW 5.8 mph - N/A   Scattered Clouds
2:30 PM 101 °F - 68 °F 25% 29.70 in 6 mi South 4.6 mph - -   Scattered Clouds
2:30 PM 102.2 °F 108.4 °F 68.0 °F 33% 29.71 in 6.2 mi South 4.6 mph - N/A   Scattered Clouds
3:00 PM 102.2 °F 108.4 °F 68.0 °F 33% 29.71 in 6.2 mi WNW 5.8 mph - N/A   Scattered Clouds
3:30 PM 102.2 °F 108.4 °F 68.0 °F 33% 29.68 in 6.2 mi WSW 6.9 mph - N/A   Scattered Clouds
4:00 PM 102.2 °F 108.4 °F 68.0 °F 33% 29.68 in 6.2 mi South 6.9 mph - N/A   Scattered Clouds
4:30 PM 100.4 °F 106.3 °F 68.0 °F 35% 29.68 in 6.2 mi SW 3.5 mph - N/A   Scattered Clouds
5:00 PM 100.4 °F 106.3 °F 68.0 °F 35% 29.68 in 6.2 mi South 11.5 mph - N/A   Scattered Clouds
5:30 PM 99 °F - 72 °F 33% 29.68 in 6 mi South 9.2 mph - -   Partly Cloudy
5:30 PM 98.6 °F 107.7 °F 71.6 °F 42% 29.68 in 6.2 mi South 9.2 mph - N/A   Scattered Clouds
6:00 PM 96.8 °F 107.3 °F 73.4 °F 47% 29.71 in 6.2 mi South 4.6 mph - N/A   Scattered Clouds
6:30 PM 95.0 °F 104.5 °F 73.4 °F 49% 29.71 in 5.0 mi SSW 6.9 mph - N/A   Partly Cloudy
7:00 PM 93.2 °F 102.4 °F 73.4 °F 52% 29.71 in 5.0 mi SSW 9.2 mph - N/A   Partly Cloudy
7:30 PM 91.4 °F 98.4 °F 71.6 °F 52% 29.74 in 5.0 mi South 9.2 mph - N/A   Partly Cloudy
8:00 PM 89.6 °F 96.2 °F 71.6 °F 55% 29.77 in 4.3 mi South 12.7 mph - N/A   Partly Cloudy
8:30 PM 89 °F - 73 °F 51% 29.77 in 2 mi SSW 6.9 mph - -   Haze
8:30 PM 87.8 °F 95.6 °F 73.4 °F 62% 29.77 in 3.7 mi SW 6.9 mph - N/A   Partly Cloudy
9:00 PM 87.8 °F 95.6 °F 73.4 °F 62% 29.80 in 3.7 mi SSW 9.2 mph - N/A   Scattered Clouds
9:30 PM 87.8 °F 95.6 °F 73.4 °F 62% 29.80 in 3.7 mi SSW 9.2 mph - N/A   Scattered Clouds
10:00 PM 87.8 °F 95.6 °F 73.4 °F 62% 29.80 in 3.7 mi SSW 10.4 mph - N/A   Scattered Clouds
10:30 PM 86.0 °F 93.4 °F 73.4 °F 66% 29.83 in 3.7 mi SSW 6.9 mph - N/A   Scattered Clouds
11:00 PM 86.0 °F 93.4 °F 73.4 °F 66% 29.83 in 3.7 mi SSW 8.1 mph - N/A   Partly Cloudy
11:30 PM 86 °F - 75 °F 62% 29.83 in 2 mi South 4.6 mph - -   Haze